Weather History for Stansted, United Kingdom

Change the Weather History Date:

Tuesday, January 1, 2013

  Actual Average Record
Temperature  
Mean Temperature 42 °F -  
Max Temperature 46 °F 42 °F 53 °F (2012)
Min Temperature 37 °F 32 °F 17 °F (2002)
Degree Days  
Heating Degree Days 24    
Moisture  
Dew Point 36 °F    
Average Humidity 81    
Maximum Humidity 93    
Minimum Humidity 70    
Precipitation  
Precipitation 0.00 in - - ()
Sea Level Pressure  
Sea Level Pressure 29.73 in    
Wind  
Wind Speed 8 mph ()    
Max Wind Speed 14 mph    
Max Gust Speed -    
Visibility 6.1 miles    
Events Rain    
Averages and records for this station are not official NWS values.
T = Trace of Precipitation, MM = Missing Value Source: Averaged Metar Reports

Daily Weather History Graph

Daily Weather History Graph

Search for Another Location

Airport:

Trip Planner

Search our weather history database for the weather conditions in past years. The results will help you decide how hot, cold, wet, or windy it might be!

Date:

Astronomy

Jan. 01, 2013 Rise Set
Actual Time 8:06 AM GMT 3:59 PM GMT
Civil Twilight 7:26 AM GMT 4:39 PM GMT
Nautical Twilight 6:42 AM GMT 5:22 PM GMT
Astronomical Twilight 6:01 AM GMT 6:03 PM GMT
Moon 8:49 PM GMT (1/1) 9:40 AM GMT (1/1)
Length of Visible Light 9h 13m
Length of Day
7h 52m
Waning Gibbous, 85% of the Moon is Illuminated
Jan 1
Waning Gibbous
Jan 5
Last Quarter
Jan 11
New
Jan 18
First Quarter
Jan 27
Full

Hourly Weather History & Observations

Time (GMT) Temp. Windchill Dew Point Humidity Pressure Visibility Wind Dir Wind Speed Gust Speed Precip Events Conditions
12:20 AM 46.4 °F 41.9 °F 44.6 °F 93% 29.50 in 4.3 mi West 9.2 mph - N/A Rain Light Rain
12:50 AM 46.4 °F 42.9 °F 44.6 °F 93% 29.50 in 6.2 mi West 6.9 mph - N/A   Overcast
1:20 AM 46.4 °F 43.5 °F 44.6 °F 93% 29.50 in 6.2 mi West 5.8 mph - N/A   Overcast
1:50 AM 46.4 °F 42.9 °F 44.6 °F 93% 29.50 in 6.2 mi West 6.9 mph - N/A Rain Light Rain
2:20 AM 46.4 °F 41.9 °F 42.8 °F 87% 29.50 in 6.2 mi WNW 9.2 mph - N/A Rain Light Rain
2:50 AM 44.6 °F 40.2 °F 42.8 °F 93% 29.50 in 6.2 mi WNW 8.1 mph - N/A Rain Light Rain
3:20 AM 44.6 °F 40.7 °F 41.0 °F 87% 29.53 in 6.2 mi West 6.9 mph - N/A   Mostly Cloudy
3:50 AM 44.6 °F 39.7 °F 41.0 °F 87% 29.53 in 6.2 mi WNW 9.2 mph - N/A   Scattered Clouds
4:20 AM 42.8 °F 38.0 °F 39.2 °F 87% 29.53 in 6.2 mi WNW 8.1 mph - N/A   Scattered Clouds
4:50 AM 42.8 °F 37.5 °F 39.2 °F 87% 29.56 in 6.2 mi WNW 9.2 mph - N/A   Scattered Clouds
5:20 AM 41.0 °F 34.3 °F 37.4 °F 87% 29.56 in - WNW 11.5 mph - N/A   Clear
5:50 AM 41.0 °F 35.2 °F 35.6 °F 81% 29.59 in - West 9.2 mph - N/A   Clear
6:20 AM 39.2 °F 33.6 °F 35.6 °F 87% 29.59 in - West 8.1 mph - N/A   Clear
6:50 AM 39.2 °F 33.6 °F 33.8 °F 81% 29.59 in - West 8.1 mph - N/A   Clear
7:20 AM 39.2 °F 33.6 °F 33.8 °F 81% 29.62 in - West 8.1 mph - N/A   Clear
7:50 AM 37.4 °F 32.8 °F 33.8 °F 87% 29.62 in - West 5.8 mph - N/A   Clear
8:20 AM 37.4 °F 31.4 °F 33.8 °F 87% 29.65 in - West 8.1 mph - N/A   Clear
8:50 AM 37.4 °F 32.1 °F 33.8 °F 87% 29.65 in - West 6.9 mph - N/A   Clear
9:20 AM 39.2 °F 33.6 °F 33.8 °F 81% 29.68 in - West 8.1 mph - N/A   Clear
9:50 AM 39.2 °F 33.6 °F 35.6 °F 87% 29.68 in - West 8.1 mph - N/A   Clear
10:20 AM 41.0 °F 34.3 °F 35.6 °F 81% 29.71 in - West 11.5 mph - N/A   Clear
10:50 AM 41.0 °F 34.3 °F 35.6 °F 81% 29.71 in - West 11.5 mph - N/A   Clear
11:20 AM 42.8 °F 36.2 °F 35.6 °F 76% 29.71 in - West 12.7 mph - N/A   Clear
11:50 AM 42.8 °F 36.2 °F 35.6 °F 76% 29.74 in 6.2 mi West 12.7 mph - N/A   Partly Cloudy
12:20 PM 42.8 °F 35.8 °F 35.6 °F 76% 29.74 in 6.2 mi West 13.8 mph - N/A   Partly Cloudy
12:50 PM 42.8 °F 35.8 °F 35.6 °F 76% 29.74 in 6.2 mi West 13.8 mph - N/A   Partly Cloudy
1:20 PM 42.8 °F 36.6 °F 35.6 °F 76% 29.77 in 6.2 mi West 11.5 mph - N/A   Partly Cloudy
1:50 PM 42.8 °F 36.2 °F 35.6 °F 76% 29.77 in 6.2 mi West 12.7 mph - N/A   Scattered Clouds
2:20 PM 42.8 °F 37.5 °F 35.6 °F 76% 29.77 in 6.2 mi West 9.2 mph - N/A   Scattered Clouds
2:50 PM 42.8 °F 36.6 °F 33.8 °F 70% 29.80 in 6.2 mi West 11.5 mph - N/A   Scattered Clouds
3:20 PM 42.8 °F 37.0 °F 33.8 °F 70% 29.80 in 6.2 mi West 10.4 mph - N/A   Scattered Clouds
3:50 PM 42.8 °F 37.5 °F 33.8 °F 70% 29.80 in 6.2 mi West 9.2 mph - N/A   Scattered Clouds
4:20 PM 41.0 °F 35.2 °F 33.8 °F 76% 29.80 in 6.2 mi West 9.2 mph - N/A   Partly Cloudy
4:50 PM 41.0 °F 35.2 °F 33.8 °F 76% 29.83 in - West 9.2 mph - N/A   Clear
5:20 PM 39.2 °F 33.0 °F 33.8 °F 81% 29.83 in 6.2 mi WSW 9.2 mph - N/A   Partly Cloudy
5:50 PM 41.0 °F 35.2 °F 33.8 °F 76% 29.86 in 6.2 mi West 9.2 mph - N/A   Scattered Clouds
6:20 PM 41.0 °F 34.7 °F 33.8 °F 76% 29.86 in 6.2 mi WSW 10.4 mph - N/A   Scattered Clouds
6:50 PM 41.0 °F 35.2 °F 33.8 °F 76% 29.89 in 6.2 mi WSW 9.2 mph - N/A   Scattered Clouds
7:20 PM 39.2 °F 34.2 °F 33.8 °F 81% 29.89 in 6.2 mi West 6.9 mph - N/A   Scattered Clouds
7:50 PM 41.0 °F 36.4 °F 33.8 °F 76% 29.89 in 6.2 mi WSW 6.9 mph - N/A   Scattered Clouds
8:20 PM 41.0 °F 35.8 °F 33.8 °F 76% 29.92 in 6.2 mi West 8.1 mph - N/A   Scattered Clouds
8:50 PM 41.0 °F 36.4 °F 35.6 °F 81% 29.95 in 6.2 mi West 6.9 mph - N/A   Scattered Clouds
9:20 PM 41.0 °F 35.8 °F 35.6 °F 81% 29.95 in 6.2 mi West 8.1 mph - N/A   Mostly Cloudy
9:50 PM 41.0 °F 34.7 °F 35.6 °F 81% 29.98 in 6.2 mi West 10.4 mph - N/A   Mostly Cloudy
10:20 PM 41.0 °F 35.2 °F 35.6 °F 81% 29.98 in 6.2 mi West 9.2 mph - N/A   Mostly Cloudy
10:50 PM 41.0 °F 35.2 °F 35.6 °F 81% 29.98 in 6.2 mi West 9.2 mph - N/A   Mostly Cloudy
11:20 PM 41.0 °F 35.2 °F 35.6 °F 81% 30.01 in 6.2 mi West 9.2 mph - N/A   Mostly Cloudy
11:50 PM 41.0 °F 35.2 °F 35.6 °F 81% 30.01 in 6.2 mi West 9.2 mph - N/A   Mostly Cloudy